Simultaneous Nadir Overpasses (SNOs) Predictions

Prediction of SNOs between METOP-A and TERRA Satellite Orbit:

Table of predicted SNOs for the next 14.0 days since TLE Epoch: 8/7/2016
Index Date (METOP-A) Time (METOP-A) Lat,Lon (METOP-A) SZA (METOP-A ) Date (TERRA) Time (TERRA) Lat,Lon (TERRA) SZA (TERRA ) Distance(km) Time Diff (sec)
1 08/08/2016 19:26:47 -81.32, 115.57 111.80 08/08/2016 19:27:53 -81.31, 115.56 111.78 0.83 66
2 08/08/2016 20:17:25 81.33, -76.22 68.32 08/08/2016 20:17:18 81.34, -76.38 68.30 2.85 7
3 08/11/2016 15:01:08 -81.32,-177.97 110.96 08/11/2016 15:02:06 -81.32,-177.82 110.92 2.64 58
4 08/11/2016 15:51:47 81.33, -10.17 69.11 08/11/2016 15:51:32 81.32, -10.16 69.10 0.42 15
5 08/14/2016 10:35:27 -81.33,-111.15 110.05 08/14/2016 10:36:18 -81.33,-111.25 110.03 1.79 51
6 08/14/2016 11:26:07 81.33, 56.24 69.98 08/14/2016 11:25:44 81.33, 56.39 69.98 2.45 23
7 08/17/2016 06:09:48 -81.33, -44.74 109.15 08/17/2016 06:10:31 -81.33, -44.75 109.13 0.72 43
8 08/17/2016 07:00:27 81.33, 123.04 70.92 08/17/2016 06:59:57 81.33, 122.88 70.89 2.70 30
9 08/20/2016 01:44:09 -81.33, 21.65 108.22 08/20/2016 01:44:44 -81.33, 21.69 108.20 0.94 35




NCC Satellite Simultaneous Nadir Overpasses (SNOs) Prediction Service
